FENGYUN 1C DEB, 31562

Orbit data source: Space-Track

FENGYUN 1C DEB, 31562 is space debris in SSO originally from a launch on Mon, 10 May 1999 UTC launched from the Taiyaun Space Center, China (TSC). Fengyun 1C debris stems from the Chinese weather satellite Fengyun-1C, which was intentionally destroyed by a Chinese anti-satellite missile in 2007. This event dramatically increased the amount of space debris, with thousands of trackable fragments posing hazards to satellites and human spaceflight. The Fengyun 1C debris cloud has become a focal point in discussions about space sustainability and the need for international regulations to prevent the creation of new debris.

Loading next visibility...
Identifier
31562, 1999-025BZD
Orbit
SSO
Country
Flag of CNCN / PRC
Related business
Manufacturer
Unknown
Mission
Spacecraft
Bus & Motor
Unknown
Mass
Unknown
Launch date (UTC)
1999-05-10 (27 years ago)
Launch vehicle
Unknown
Launch site
Taiyaun Space Center, China (TSC)
Object type
Payload
Rocket body
Debris
Shape & HBR
Unknown shape, 0.1 m
Radar Cross Section
Small (<0.1 m²)

Expand to show TLE details & history
Last TLE update: 15 hours ago

TLE from 15 hours ago
0 FENGYUN 1C DEB
1 31562U 99025BZD 25353.38837172  .00002177  00000-0  66498-3 0  9992
2 31562  99.2576 145.4936 0057104 263.6172  95.8510 14.42101295970860
Epoch: 2025-12-19T09:19Z
TLE epoch observation values (Epoch: 2025-12-19T09:19:15.316Z)
Latitude
-0.00001°
Longitude
-82.55046°
Altitude
758.872 km
Speed
7.473 km/s
True Right ascension
09h 41m 58s
True Declination
0° 00' 00"
Sunlit
Object was in full shadow at epoch
Visualization orbit readout
Latitude
Unknown
Longitude
Unknown
Altitude
Unknown
Speed
Unknown
Apparent Right ascension
Unknown
Apparent Declination
Unknown
Sunlit
N/A
Visualization observer readout
Local Sidereal Time
23:40:43
Azimuth
Unknown
Elevation
Unknown
Doppler factor
Unknown
Orbital elements
Apogee altitude
789.418 km
Perigee altitude
708.023 km
Semi-major axis
7,126.858 km
Eccentricity
0.00571
Inclination
99.2576°
RAAN
145.4936°
Arg. of periapsis
263.6172°
True anomaly
96.50147°
Mean anomaly
95.851°
Eccentric anomaly
96.17628°
Mean motion
3.60741 °/min
Orbital period
99.79 mins
BSTAR
0.00066498
Loading maneuver chart data...
Computing Atmospheric mass density...
Loading historical data...
Loading historical data...
Loading historical data...
Loading historical data...
Loading historical data...
Loading historical data...
Loading historical data...

Documentation

Showing up to 5 results
|